H1 CPF 2 NER 2020 12 18 9 353 01 glonass134 H2 1407501 9134 40315 2020 12 18 0 0 0 2020 12 21 23 45 0 900 1 1 0 0 0 1 H9 10 0 59201 0.00000 0 20322049.679 -8676699.827 12702136.932 10 0 59201 900.00000 0 21688359.330 -8971131.192 9926667.464 10 0 59201 1800.00000 0 22684943.094 -9284449.338 6957809.154 10 0 59201 2700.00000 0 23297533.115 -9562268.376 3853338.774 10 0 59201 3600.00000 0 23524903.443 -9749733.053 673737.134 10 0 59201 4500.00000 0 23378798.367 -9794067.418 -2519001.153 10 0 59201 5400.00000 0 22883328.723 -9647047.748 -5662591.860 10 0 59201 6300.00000 0 22073861.370 -9267292.539 -8695693.772 10 0 59201 7200.00000 0 20995449.282 -8622270.078 -11559123.646 10 0 59201 8100.00000 0 19700869.627 -7689936.216 -14197027.887 10 0 59201 9000.00000 0 18248354.144 -6459930.914 -16557986.357 10 0 59201 9900.00000 0 16699109.348 -4934281.449 -18596025.220 10 0 59201 10800.00000 0 15114732.847 -3127581.443 -20271518.210 10 0 59201 11700.00000 0 13554636.103 -1066637.620 -21551958.302 10 0 59201 12600.00000 0 12073583.169 1210400.904 -22412584.866 10 0 59201 13500.00000 0 10719449.323 3655394.012 -22836854.732 10 0 59201 14400.00000 0 9531293.450 6211985.574 -22816749.054 10 0 59201 15300.00000 0 8537824.179 8817727.239 -22352911.317 10 0 59201 16200.00000 0 7756322.486 11406461.954 -21454615.282 10 0 59201 17100.00000 0 7192063.824 13910867.704 -20139565.015 10 0 59201 18000.00000 0 6838261.623 16265055.587 -18433532.297 10 0 59201 18900.00000 0 6676531.922 18407114.706 -16369839.702 10 0 59201 19800.00000 0 6677857.162 20281498.962 -13988700.374 10 0 59201 20700.00000 0 6804006.451 21841157.711 -11336428.112 10 0 59201 21600.00000 0 7009350.780 23049323.348 -8464533.541 10 0 59201 22500.00000 0 7242995.535 23880883.219 -5428724.069 10 0 59201 23400.00000 0 7451139.781 24323280.650 -2287827.052 10 0 59201 24300.00000 0 7579562.742 24376909.444 897343.301 10 0 59201 25200.00000 0 7576132.879 24054987.092 4065153.890 10 0 59201 26100.00000 0 7393234.410 23382913.354 7154333.585 10 0 59201 27000.00000 0 6990009.687 22397141.956 10105145.071 10 0 59201 27900.00000 0 6334323.651 21143612.953 12860526.160 10 0 59201 28800.00000 0 5404368.117 19675811.183 15367179.524 10 0 59201 29700.00000 0 4189838.504 18052531.325 17576591.115 10 0 59201 30600.00000 0 2692633.038 16335441.906 19445958.757 10 0 59201 31500.00000 0 927044.098 14586548.699 20939013.974 10 0 59201 32400.00000 0 -1080568.073 12865661.971 22026722.052 10 0 59201 33300.00000 0 -3292607.953 11227971.879 22687847.310 10 0 59201 34200.00000 0 -5661551.489 9721832.042 22909372.731 10 0 59201 35100.00000 0 -8131675.517 8386842.938 22686765.484 10 0 59201 36000.00000 0 -10641140.763 7252314.702 22024082.390 10 0 59201 36900.00000 0 -13124344.370 6336173.680 20933911.979 10 0 59201 37800.00000 0 -15514446.297 5644358.897 19437152.634 10 0 59201 38700.00000 0 -17745966.094 5170734.596 17562629.234 10 0 59201 39600.00000 0 -19757342.617 4897523.539 15346553.786 10 0 59201 40500.00000 0 -21493350.125 4796243.946 12831838.685 10 0 59201 41400.00000 0 -22907269.239 4829111.452 10067274.355 10 0 59201 42300.00000 0 -23962720.749 4950847.525 7106586.229 10 0 59201 43200.00000 0 -24635083.948 5110817.907 4007388.868 10 0 59201 44100.00000 0 -24912438.328 5255410.000 830057.661 10 0 59201 45000.00000 0 -24795987.544 5330547.297 -2363459.081 10 0 59201 45900.00000 0 -24299946.672 5284232.495 -5510863.255 10 0 59201 46800.00000 0 -23450896.902 5069009.244 -8550739.747 10 0 59201 47700.00000 0 -22286634.875 4644235.753 -11423772.852 10 0 59201 48600.00000 0 -20854565.807 3978071.467 -14073920.622 10 0 59201 49500.00000 0 -19209709.277 3049090.420 -16449522.499 10 0 59201 50400.00000 0 -17412403.246 1847451.207 -18504317.068 10 0 59201 51300.00000 0 -15525804.598 375572.789 -20198349.166 10 0 59201 52200.00000 0 -13613292.884 -1351713.239 -21498748.222 10 0 59201 53100.00000 0 -11735887.599 -3307540.564 -22380362.737 10 0 59201 54000.00000 0 -9949788.049 -5453900.295 -22826239.180 10 0 59201 54900.00000 0 -8304138.984 -7743009.527 -22827937.019 10 0 59201 55800.00000 0 -6839114.954 -10119098.369 -22385675.036 10 0 59201 56700.00000 0 -5584402.163 -12520540.245 -21508307.600 10 0 59201 57600.00000 0 -4558139.385 -14882236.097 -20213132.829 10 0 59201 58500.00000 0 -3766359.827 -17138152.883 -18525537.817 10 0 59201 59400.00000 0 -3202954.573 -19223910.781 -16478489.073 10 0 59201 60300.00000 0 -2850156.321 -21079311.931 -14111879.062 10 0 59201 61200.00000 0 -2679520.539 -22650706.255 -11471742.329 10 0 59201 62100.00000 0 -2653360.490 -23893097.134 -8609356.911 10 0 59201 63000.00000 0 -2726574.003 -24771900.702 -5580248.611 10 0 59201 63900.00000 0 -2848783.852 -25264287.043 -2443117.502 10 0 59201 64800.00000 0 -2966700.947 -25360049.049 741292.884 10 0 59201 65700.00000 0 -3026610.563 -25061964.206 3911362.304 10 0 59201 66600.00000 0 -2976877.159 -24385635.471 7005774.541 10 0 59201 67500.00000 0 -2770362.736 -23358818.824 9964690.234 10 0 59201 68400.00000 0 -2366657.527 -22020265.962 12730890.186 10 0 59201 69300.00000 0 -1734029.656 -20418130.448 15250868.148 10 0 59201 70200.00000 0 -851012.084 -18608003.250 17475853.200 10 0 59201 71100.00000 0 292440.055 -16650658.609 19362743.213 10 0 59201 72000.00000 0 1694270.929 -14609602.918 20874932.309 10 0 59201 72900.00000 0 3340154.071 -12548527.213 21983017.258 10 0 59201 73800.00000 0 5203840.106 -10528767.782 22665369.665 10 0 59201 74700.00000 0 7248009.953 -8606879.260 22908562.980 10 0 59201 75600.00000 0 9425600.722 -6832420.065 22707645.750 10 0 59201 76500.00000 0 11681551.930 -5246041.626 22066255.017 10 0 59201 77400.00000 0 13954902.015 -3877960.776 20996566.388 10 0 59201 78300.00000 0 16181150.270 -2746879.107 19519080.133 10 0 59201 79200.00000 0 18294787.698 -1859394.963 17662245.553 10 0 59201 80100.00000 0 20231892.364 -1209933.448 15461929.001 10 0 59201 81000.00000 0 21932681.359 -781198.266 12960734.027 10 0 59201 81900.00000 0 23343912.363 -545127.156 10207185.231 10 0 59201 82800.00000 0 24421033.200 -464311.272 7254790.692 10 0 59201 83700.00000 0 25129987.754 -493818.699 4161000.607 10 0 59201 84600.00000 0 25448600.657 -583344.589 986082.477 10 0 59201 85500.00000 0 25367480.649 -679595.922 -2208064.429 10 0 59202 0.00000 0 24890403.102 -728808.313 -5359130.974 10 0 59202 900.00000 0 24034154.128 -679285.788 -8405631.273 10 0 59202 1800.00000 0 22827843.088 -483854.532 -11288120.086 10 0 59202 2700.00000 0 21311711.240 -102122.400 -13950369.966 10 0 59202 3600.00000 0 19535488.651 497551.976 -16340482.619 10 0 59202 4500.00000 0 17556368.862 1336467.106 -18411911.511 10 0 59202 5400.00000 0 15436688.258 2424431.906 -20124374.805 10 0 59202 6300.00000 0 13241408.987 3759113.901 -21444640.361 10 0 59202 7200.00000 0 11035512.406 5325910.275 -22347167.528 10 0 59202 8100.00000 0 8881413.177 7098347.213 -22814593.861 10 0 59202 9000.00000 0 6836502.529 9038990.406 -22838058.274 10 0 59202 9900.00000 0 4950923.163 11100827.890 -22417355.649 10 0 59202 10800.00000 0 3265667.654 13229066.631 -21560921.387 10 0 59202 11700.00000 0 1811078.042 15363267.143 -20285647.681 10 0 59202 12600.00000 0 605807.027 17439726.457 -18616536.549 10 0 59202 13500.00000 0 -343718.574 19394009.871 -16586197.618 10 0 59202 14400.00000 0 -1043312.588 21163526.052 -14234201.426 10 0 59202 15300.00000 0 -1510524.738 22690038.586 -11606301.619 10 0 59202 16200.00000 0 -1773640.241 23922010.141 -8753541.607 10 0 59202 17100.00000 0 -1870228.069 24816682.629 -5731263.196 10 0 59202 18000.00000 0 -1845300.600 25341807.851 -2598036.474 10 0 59202 18900.00000 0 -1749163.301 25476957.838 585468.647 10 0 59202 19800.00000 0 -1635045.558 25214361.533 3757647.896 10 0 59202 20700.00000 0 -1556612.492 24559233.962 6857143.178 10 0 59202 21600.00000 0 -1565462.272 23529585.060 9824016.286 10 0 59202 22500.00000 0 -1708713.750 22155516.453 12600894.158 10 0 59202 23400.00000 0 -2026785.331 20478035.555 15134064.621 10 0 59202 24300.00000 0 -2551458.029 18547435.832 17374502.708 10 0 59202 25200.00000 0 -3304303.942 16421309.739 19278808.917 10 0 59202 26100.00000 0 -4295546.408 14162275.706 20810042.279 10 0 59202 27000.00000 0 -5523400.477 11835512.131 21938433.050 10 0 59202 27900.00000 0 -6973922.831 9506199.178 22641961.763 10 0 59202 28800.00000 0 -8621379.408 7236973.085 22906793.576 10 0 59202 29700.00000 0 -10429117.842 5085497.357 22727559.198 10 0 59202 30600.00000 0 -12350911.060 3102250.633 22107476.182 10 0 59202 31500.00000 0 -14332718.687 1328622.677 21058306.965 10 0 59202 32400.00000 0 -16314795.339 -204602.522 19600152.899 10 0 59202 33300.00000 0 -18234059.981 -1478313.093 17761086.362 10 0 59202 34200.00000 0 -20026628.854 -2485639.942 15576626.195 10 0 59202 35100.00000 0 -21630406.869 -3232007.169 13089064.767 10 0 59202 36000.00000 0 -22987628.986 -3734659.388 10346658.155 10 0 59202 36900.00000 0 -24047244.247 -4021685.208 7402694.095 10 0 59202 37800.00000 0 -24767041.022 -4130577.814 4314455.240 10 0 59202 38700.00000 0 -25115422.313 -4106393.640 1142097.938 10 0 59202 39600.00000 0 -25072754.376 -3999587.755 -2052530.884 10 0 59202 40500.00000 0 -24632229.956 -3863618.949 -5207114.444 10 0 59202 41400.00000 0 -23800208.074 -3752427.875 -8260099.021 10 0 59202 42300.00000 0 -22596014.954 -3717897.267 -11151912.998 10 0 59202 43200.00000 0 -21051213.925 -3807404.345 -13826146.330 10 0 59202 44100.00000 0 -19208375.133 -4061571.402 -16230665.637 10 0 59202 45000.00000 0 -17119397.551 -4512311.940 -18318641.603 10 0 59202 45900.00000 0 -14843454.854 -5181256.668 -20049467.648 10 0 59202 46800.00000 0 -12444652.699 -6078627.065 -21389551.519 10 0 59202 47700.00000 0 -9989496.892 -7202604.605 -22312964.333 10 0 59202 48600.00000 0 -7544279.448 -8539222.320 -22801935.081 10 0 59202 49500.00000 0 -5172492.354 -10062782.910 -22847181.936 10 0 59202 50400.00000 0 -2932377.040 -11736785.135 -22448075.186 10 0 59202 51300.00000 0 -874711.105 -13515318.811 -21612630.128 10 0 59202 52200.00000 0 959076.868 -15344869.141 -20357331.529 10 0 59202 53100.00000 0 2538387.718 -17166454.088 -18706794.532 10 0 59202 54000.00000 0 3844468.173 -18918004.967 -16693269.853 10 0 59202 54900.00000 0 4870923.812 -20536890.584 -14356003.915 10 0 59202 55800.00000 0 5623710.037 -21962479.590 -11740467.142 10 0 59202 56700.00000 0 6120604.379 -23138634.540 -8897465.917 10 0 59202 57600.00000 0 6390184.888 -24016034.294 -5882155.612 10 0 59202 58500.00000 0 6470359.652 -24554228.707 -2752973.872 10 0 59202 59400.00000 0 6406510.827 -24723340.944 429485.455 10 0 59202 60300.00000 0 6249332.324 -24505347.386 3603636.477 10 0 59202 61200.00000 0 6052452.517 -23894882.674 6708081.578 10 0 59202 62100.00000 0 5869942.020 -22899536.963 9682785.983 10 0 59202 63000.00000 0 5753811.022 -21539633.337 12470224.941 10 0 59202 63900.00000 0 5751600.845 -19847494.609 15016482.386 10 0 59202 64800.00000 0 5904170.384 -17866229.474 17272281.143 10 0 59202 65700.00000 0 6243769.993 -15648087.545 19193925.948 10 0 59202 66600.00000 0 6792483.571 -13252450.304 20744142.074 10 0 59202 67500.00000 0 7561104.562 -10743539.763 21892794.280 10 0 59202 68400.00000 0 8548493.912 -8187938.071 22617472.718 10 0 59202 69300.00000 0 9741448.393 -5652019.243 22903934.600 10 0 59202 70200.00000 0 11115086.775 -3199397.847 22746392.826 10 0 59202 71100.00000 0 12633740.206 -888499.095 22147645.184 10 0 59202 72000.00000 0 14252312.082 1229649.662 21119040.402 10 0 59202 72900.00000 0 15918053.179 3113314.807 19680280.141 10 0 59202 73800.00000 0 17572680.108 4731560.886 17859058.871 10 0 59202 74700.00000 0 19154750.171 6065300.453 15690546.732 10 0 59202 75600.00000 0 20602194.316 7107844.911 13216723.542 10 0 59202 76500.00000 0 21854902.304 7864932.587 10485575.271 10 0 59202 77400.00000 0 22857251.085 8354232.123 7550167.521 10 0 59202 78300.00000 0 23560468.956 8604341.770 4467613.394 10 0 59202 79200.00000 0 23924734.264 8653326.700 1297955.872 10 0 59202 80100.00000 0 23920918.179 8546856.661 -1897012.827 10 0 59202 81000.00000 0 23531895.887 8336023.797 -5054970.697 10 0 59202 81900.00000 0 22753368.913 8074934.621 -8114298.812 10 0 59202 82800.00000 0 21594162.252 7818180.147 -11015301.602 10 0 59202 83700.00000 0 20075982.686 7618293.649 -13701388.774 10 0 59202 84600.00000 0 18232647.988 7523306.042 -16120194.060 10 0 59202 85500.00000 0 16108819.591 7574504.532 -18224607.371 10 0 59203 0.00000 0 13758292.661 7804491.074 -19973699.188 10 0 59203 900.00000 0 11241916.081 8235624.416 -21333518.839 10 0 59203 1800.00000 0 8625231.118 8878910.958 -22277750.664 10 0 59203 2700.00000 0 5975928.133 9733393.401 -22788216.370 10 0 59203 3600.00000 0 3361228.389 10786060.410 -22855214.457 10 0 59203 4500.00000 0 845300.654 12012281.730 -22477691.422 10 0 59203 5400.00000 0 -1513180.262 13376748.858 -21663242.942 10 0 59203 6300.00000 0 -3663232.333 14834880.882 -20427946.475 10 0 59203 7200.00000 0 -5563432.519 16334635.447 -18796030.002 10 0 59203 8100.00000 0 -7183374.892 17818648.139 -16799384.636 10 0 59203 9000.00000 0 -8504662.580 19226610.191 -14476931.571 10 0 59203 9900.00000 0 -9521394.982 20497784.712 -11873856.529 10 0 59203 10800.00000 0 -10240132.932 21573556.309 -9040727.043 10 0 59203 11700.00000 0 -10679346.065 22399907.864 -6032509.915 10 0 59203 12600.00000 0 -10868367.961 22929721.544 -2907507.968 10 0 59203 13500.00000 0 -10845904.943 23124808.653 273763.614 10 0 59203 14400.00000 0 -10658162.534 22957584.342 3449740.085 10 0 59203 15300.00000 0 -10356669.129 22412317.972 6558987.185 10 0 59203 16200.00000 0 -9995888.654 21485907.509 9541376.522 10 0 59203 17100.00000 0 -9630722.381 20188145.878 12339234.608 10 0 59203 18000.00000 0 -9314004.401 18541468.076 14898444.407 10 0 59203 18900.00000 0 -9094095.306 16580188.996 17169479.361 10 0 59203 19800.00000 0 -9012674.472 14349262.630 19108351.115 10 0 59203 20700.00000 0 -9102823.151 11902612.819 20677453.643 10 0 59203 21600.00000 0 -9387478.655 9301103.063 21846288.399 10 0 59203 22500.00000 0 -9878324.836 6610227.614 22592057.009 10 0 59203 23400.00000 0 -10575166.237 3897617.592 22900110.221 10 0 59203 24300.00000 0 -11465813.612 1230463.524 22764244.152 10 0 59203 25200.00000 0 -12526487.574 -1327040.551 22186837.360 10 0 59203 26100.00000 0 -13722725.694 -3716126.655 21178824.867 10 0 59203 27000.00000 0 -15010757.476 -5885656.087 19759508.089 10 0 59203 27900.00000 0 -16339291.910 -7794005.113 17956202.488 10 0 59203 28800.00000 0 -17651644.547 -9410554.369 15803727.877 10 0 59203 29700.00000 0 -18888116.264 -10716719.372 13343749.417 10 0 59203 30600.00000 0 -19988524.473 -11706478.400 10623980.457 10 0 59203 31500.00000 0 -20894780.192 -12386374.738 7697261.623 10 0 59203 32400.00000 0 -21553401.665 -12774992.685 4620533.393 10 0 59203 33300.00000 0 -21917857.030 -12901929.084 1453722.142 10 0 59203 34200.00000 0 -21950635.224 -12806303.929 -1741437.942 10 0 59203 35100.00000 0 -21624955.449 -12534873.729 -4902622.979 10 0 59203 36000.00000 0 -20926040.772 -12139828.705 -7968152.170 10 0 59203 36900.00000 0 -19851900.063 -11676368.816 -10878209.243 10 0 59203 37800.00000 0 -18413583.722 -11200163.338 -13576026.778 10 0 59203 38700.00000 0 -16634901.324 -10764803.790 -16009008.534 10 0 59203 39600.00000 0 -14551612.738 -10419360.145 -18129766.270 10 0 59203 40500.00000 0 -12210126.847 -10206145.539 -19897049.806 10 0 59203 41400.00000 0 -9665763.054 -10158785.336 -21276551.691 10 0 59203 42300.00000 0 -6980649.391 -10300672.870 -22241570.703 10 0 59203 43200.00000 0 -4221346.011 -10643877.197 -22773521.878 10 0 59203 44100.00000 0 -1456294.108 -11188548.472 -22862284.039 10 0 59203 45000.00000 0 1246802.844 -11922845.123 -22506379.341 10 0 59203 45900.00000 0 3823556.551 -12823384.654 -21712982.799 10 0 59203 46800.00000 0 6215323.409 -13856197.799 -20497763.113 10 0 59203 47700.00000 0 8371386.149 -14978144.535 -18884559.316 10 0 59203 48600.00000 0 10250798.735 -16138731.347 -16904900.840 10 0 59203 49500.00000 0 11823820.027 -17282252.519 -14597381.346 10 0 59203 50400.00000 0 13072879.078 -18350165.050 -12006899.333 10 0 59203 51300.00000 0 13993034.697 -19283597.360 -9183780.783 10 0 59203 52200.00000 0 14591912.905 -20025886.730 -6182801.082 10 0 59203 53100.00000 0 14889127.455 -20525039.544 -3062125.280 10 0 59203 54000.00000 0 14915209.943 -20736011.846 117813.097 10 0 59203 54900.00000 0 14710096.095 -20622715.456 3295473.421 10 0 59203 55800.00000 0 14321232.871 -20159666.297 6409387.670 10 0 59203 56700.00000 0 13801386.423 -19333206.575 9399336.548 10 0 59203 57600.00000 0 13206243.025 -18142249.928 12207500.314 10 0 59203 58500.00000 0 12591903.281 -16598518.347 14779563.149 10 0 59203 59400.00000 0 12012374.155 -14726260.399 17065750.960 10 0 59203 60300.00000 0 11517163.246 -12561461.421 19021783.782 10 0 59203 61200.00000 0 11149075.460 -10150577.062 20609725.383 10 0 59203 62100.00000 0 10942303.938 -7548840.905 21798714.596 10 0 59203 63000.00000 0 10920895.097 -4818214.195 22565564.810 10 0 59203 63900.00000 0 11097652.398 -2025060.503 22895220.201 10 0 59203 64800.00000 0 11473525.654 762360.558 22781059.637 10 0 59203 65700.00000 0 12037512.809 3476478.741 22225041.650 10 0 59203 66600.00000 0 12767080.095 6052972.064 21237686.477 10 0 59203 67500.00000 0 13629084.997 8433194.260 19837893.971 10 0 59203 68400.00000 0 14581165.425 10566370.543 18052599.061 10 0 59203 69300.00000 0 15573538.681 12411470.410 15916269.542 10 0 59203 70200.00000 0 16551136.154 13938679.029 13470254.081 10 0 59203 71100.00000 0 17455984.869 15130405.096 10761991.440 10 0 59203 72000.00000 0 18229735.801 15981782.028 7844095.174 10 0 59203 72900.00000 0 18816231.806 16500640.671 4773330.927 10 0 59203 73800.00000 0 19164005.542 16706954.135 1609506.175 10 0 59203 74700.00000 0 19228600.025 16631777.896 -1585705.279 10 0 59203 75600.00000 0 18974611.526 16315730.300 -4749980.021 10 0 59203 76500.00000 0 18377366.095 15807078.578 -7821577.668 10 0 59203 77400.00000 0 17424156.553 15159512.714 -10740563.405 10 0 59203 78300.00000 0 16114985.763 14429703.223 -13449994.676 10 0 59203 79200.00000 0 14462783.262 13674748.230 -15897047.058 10 0 59203 80100.00000 0 12493085.261 12949619.899 -18034055.740 10 0 59203 81000.00000 0 10243191.100 12304720.085 -19819451.250 10 0 59203 81900.00000 0 7760831.738 11783649.905 -21218570.623 10 0 59203 82800.00000 0 5102406.725 11421288.288 -22204328.125 10 0 59203 83700.00000 0 2330864.147 11242260.818 -22757733.005 10 0 59203 84600.00000 0 -486687.147 11259863.001 -22868245.118 10 0 59203 85500.00000 0 -3281532.818 11475482.360 -22533962.747 10 0 59204 0.00000 0 -5985969.185 11878542.241 -21761640.454 10 0 59204 900.00000 0 -8535871.729 12446968.283 -20566537.959 10 0 59204 1800.00000 0 -10873109.998 13148155.586 -18972104.835 10 0 59204 2700.00000 0 -12947709.363 13940395.295 -17009507.909 10 0 59204 3600.00000 0 -14719672.634 14774698.271 -14717012.048 10 0 59204 4500.00000 0 -16160387.012 15596938.830 -12139226.961 10 0 59204 5400.00000 0 -17253560.909 16350227.560 -9326235.276 10 0 59204 6300.00000 0 -17995654.065 16977413.411 -6332618.974 10 0 59204 7200.00000 0 -18395785.547 17423610.044 -3216403.179 10 0 59204 8100.00000 0 -18475125.838 17638640.818 -37937.501 10 0 59204 9000.00000 0 -18265800.349 17579300.330 3141263.925 10 0 59204 9900.00000 0 -17809351.654 17211338.321 6259701.780 10 0 59204 10800.00000 0 -17154825.769 16511083.282 9257068.408 10 0 59204 11700.00000 0 -16356562.978 15466638.094 12075400.419 10 0 59204 12600.00000 0 -15471785.623 14078597.622 14660185.830 10 0 59204 13500.00000 0 -14558083.388 12360257.825 16961405.607 10 0 59204 14400.00000 0 -13670900.602 10337306.601 18934490.665 10 0 59204 15300.00000 0 -12861129.902 8047007.838 20541176.881 10 0 59204 16200.00000 0 -12172912.197 5536910.630 21750242.547 10 0 59204 17100.00000 0 -11641734.406 2863135.000 22538114.588 10 0 59204 18000.00000 0 -11292904.436 88302.855 22889332.009 10 0 59204 18900.00000 0 -11140467.485 -2720802.527 22796857.422 10 0 59204 19800.00000 0 -11186609.795 -5495753.799 22262229.876 10 0 59204 20700.00000 0 -11421576.100 -8169071.182 21295554.888 10 0 59204 21600.00000 0 -11824105.785 -10676782.432 19915330.326 10 0 59204 22500.00000 0 -12362371.226 -12960845.829 18148109.687 10 0 59204 23400.00000 0 -12995380.671 -14971335.646 16028007.389 10 0 59204 24300.00000 0 -13674788.155 -16668298.893 13596053.824 10 0 59204 25200.00000 0 -14347035.319 -18023205.176 10899411.022 10 0 59204 26100.00000 0 -14955735.269 -19019928.013 7990463.020 10 0 59204 27000.00000 0 -15444197.634 -19655215.472 4925797.951 10 0 59204 27900.00000 0 -15757987.124 -19938629.469 1765101.534 10 0 59204 28800.00000 0 -15847405.814 -19891955.680 -1430015.793 10 0 59204 29700.00000 0 -15669792.014 -19548108.862 -4597234.165 10 0 59204 30600.00000 0 -15191536.067 -18949580.284 -7674756.741 10 0 59204 31500.00000 0 -14389725.362 -18146493.860 -10602533.310 10 0 59204 32400.00000 0 -13253346.759 -17194354.696 -13323449.289 10 0 59204 33300.00000 0 -11783993.749 -16151587.070 -15784455.065 10 0 59204 34200.00000 0 -9996047.173 -15076967.861 -17937612.046 10 0 59204 35100.00000 0 -7916321.098 -14027065.746 -19741033.943 10 0 59204 36000.00000 0 -5583188.461 -13053795.769 -21159704.347 10 0 59204 36900.00000 0 -3045223.431 -12202193.475 -22166154.584 10 0 59204 37800.00000 0 -359417.871 -11508502.823 -22740989.140 10 0 59204 38700.00000 0 2410952.946 -10998658.072 -22873249.378 10 0 59204 39600.00000 0 5198725.594 -10687222.626 -22560609.642 10 0 59204 40500.00000 0 7935404.581 -10576827.979 -21809403.428 10 0 59204 41400.00000 0 10553772.893 -10658134.481 -20634480.589 10 0 59204 42300.00000 0 12990448.742 -10910313.541 -19058899.801 10 0 59204 43200.00000 0 15188283.258 -11302028.923 -17113463.573 10 0 59204 44100.00000 0 17098500.847 -11792874.009 -14836105.898 10 0 59204 45000.00000 0 18682495.018 -12335203.061 -12271145.296 10 0 59204 45900.00000 0 19913207.152 -12876278.311 -9468418.306 10 0 59204 46800.00000 0 20776033.178 -13360641.909 -6482310.483 10 0 59204 47700.00000 0 21269222.681 -13732612.701 -3370703.780 10 0 59204 48600.00000 0 21403756.082 -13938803.004 -193860.476 10 0 59204 49500.00000 0 21202706.979 -13930549.924 2986735.234 10 0 59204 50400.00000 0 20700117.818 -13666159.650 6109556.119 10 0 59204 51300.00000 0 19939436.990 -13112870.985 9114209.362 10 0 59204 52200.00000 0 18971583.229 -12248456.142 11942590.838 10 0 59204 53100.00000 0 17852718.329 -11062391.787 14539994.954 10 0 59204 54000.00000 0 16641820.869 -9556551.020 16856159.860 10 0 59204 54900.00000 0 15398161.642 -7745386.466 18846229.036 10 0 59204 55800.00000 0 14178785.378 -5655595.557 20471611.705 10 0 59204 56700.00000 0 13036102.950 -3325280.009 21700726.393 10 0 59204 57600.00000 0 12015693.825 -802632.204 22509613.889 10 0 59204 58500.00000 0 11154409.937 1855799.501 22882407.934 10 0 59204 59400.00000 0 10478860.014 4587197.185 22811654.372 10 0 59204 60300.00000 0 10004337.922 7324827.564 22298471.871 10 0 59204 61200.00000 0 9734240.575 10000568.525 21352549.977 10 0 59204 62100.00000 0 9660000.843 12547505.021 19991983.011 10 0 59204 63000.00000 0 9761539.640 14902487.795 18242941.199 10 0 59204 63900.00000 0 10008219.675 17008549.061 16139183.523 10 0 59204 64800.00000 0 10360262.144 18817074.551 13721419.854 10 0 59204 65700.00000 0 10770567.764 20289640.715 11036533.086 10 0 59204 66600.00000 0 11186865.951 21399439.207 8136675.222 10 0 59204 67500.00000 0 11554101.346 22132227.807 5078254.262 10 0 59204 68400.00000 0 11816956.062 22486766.647 1920831.507 10 0 59204 69300.00000 0 11922399.592 22474720.418 -1274048.633 10 0 59204 70200.00000 0 11822156.444 22120030.109 -4444072.432 10 0 59204 71100.00000 0 11474984.714 21457780.785 -7527389.040 10 0 59204 72000.00000 0 10848666.645 20532613.729 -10463835.107 10 0 59204 72900.00000 0 9921624.497 19396751.148 -13196126.016 10 0 59204 73800.00000 0 8684091.255 18107718.370 -15670988.697 10 0 59204 74700.00000 0 7138785.032 16725861.536 -17840212.230 10 0 59204 75600.00000 0 5301057.572 15311767.318 -19661594.704 10 0 59204 76500.00000 0 3198509.896 13923695.060 -21099767.231 10 0 59204 77400.00000 0 870091.234 12615130.717 -22126878.939 10 0 59204 78300.00000 0 -1635280.775 11432566.124 -22723130.091 10 0 59204 79200.00000 0 -4260520.331 10413596.864 -22877143.847 10 0 59204 80100.00000 0 -6942518.316 9585417.906 -22586170.632 10 0 59204 81000.00000 0 -9614541.796 8963778.760 -21856122.609 10 0 59204 81900.00000 0 -12208788.002 8552440.032 -20701439.057 10 0 59204 82800.00000 0 -14658986.528 8343151.974 -19144786.760 10 0 59204 83700.00000 0 -16902942.080 8316153.497 -17216602.526 10 0 59204 84600.00000 0 -18884913.067 8441168.336 -14954487.804 10 0 59204 85500.00000 0 -20557728.431 8678854.457 -12402468.014 99